Weather History for Cherokee, IA

Change the Weather History Date:

Tuesday, October 29, 2013

  Actual Average Record
Temperature  
Mean Temperature 45 °F -  
Max Temperature 51 °F 55 °F 76 °F (1950)
Min Temperature 39 °F 30 °F 13 °F (1967)
Degree Days  
Heating Degree Days 20    
Moisture  
Dew Point 42 °F    
Average Humidity 84    
Maximum Humidity 93    
Minimum Humidity 73    
Precipitation  
Precipitation 0.02 in - - ()
Sea Level Pressure  
Sea Level Pressure 30.10 in    
Wind  
Wind Speed 8 mph (ENE)    
Max Wind Speed 12 mph    
Max Gust Speed 17 mph    
Visibility 8 miles    
Events Rain    
Averages and records for this station are not official NWS values.
T = Trace of Precipitation, MM = Missing Value Source: NWS Daily Summary

Daily Weather History Graph

Daily Weather History Graph

Search for Another Location

Airport:

Trip Planner

Search our weather history database for the weather conditions in past years. The results will help you decide how hot, cold, wet, or windy it might be!

Date:

Astronomy

Oct. 29, 2013 Rise Set
Actual Time 7:52 AM CDT 6:18 PM CDT
Civil Twilight 7:23 AM CDT 6:47 PM CDT
Nautical Twilight 6:50 AM CDT 7:20 PM CDT
Astronomical Twilight 6:17 AM CDT 7:53 PM CDT
Moon 2:37 AM CDT (10/29) 3:38 PM CDT (10/29)
Length of Visible Light 11h 24m
Length of Day
10h 25m
Waning Crescent, 25% of the Moon is Illuminated
Oct 29
Waning Crescent
Nov 3
New
Nov 9
First Quarter
Nov 17
Full
Nov 25
Last Quarter

Hourly Weather History & Observations

Time (CDT) Temp. Windchill Dew Point Humidity Pressure Visibility Wind Dir Wind Speed Gust Speed Precip Events Conditions
12:15 AM 40.3 °F 33.9 °F 33.8 °F 78% 30.27 in 7.0 mi East 10.4 mph - N/A Rain Rain
12:35 AM 39.7 °F 32.7 °F 34.7 °F 82% 30.24 in 5.0 mi ENE 11.5 mph - 0.02 in Rain Rain
12:55 AM 39.6 °F 34.7 °F 34.7 °F 83% 30.24 in 10.0 mi East 6.9 mph - 0.02 in Rain Light Rain
1:15 AM 39.6 °F 34.7 °F 34.7 °F 83% 30.24 in 10.0 mi ENE 6.9 mph - N/A   Mostly Cloudy
1:35 AM 39.6 °F 35.4 °F 34.3 °F 82% 30.25 in 10.0 mi ENE 5.8 mph - N/A   Overcast
1:55 AM 39.6 °F 33.5 °F 34.7 °F 83% 30.23 in 10.0 mi ENE 9.2 mph - N/A   Overcast
2:15 AM 39.7 °F 32.7 °F 34.7 °F 82% 30.23 in 10.0 mi East 11.5 mph - N/A   Overcast
2:35 AM 39.7 °F 33.7 °F 34.7 °F 82% 30.23 in 10.0 mi East 9.2 mph - N/A   Overcast
2:55 AM 39.6 °F 33.5 °F 34.7 °F 83% 30.23 in 10.0 mi East 9.2 mph - N/A   Overcast
3:15 AM 39.6 °F 34.0 °F 34.7 °F 83% 30.23 in 10.0 mi ENE 8.1 mph - N/A   Overcast
3:35 AM 39.6 °F 32.5 °F 34.7 °F 83% 30.22 in 10.0 mi ENE 11.5 mph 17.3 mph N/A   Overcast
3:55 AM 39.6 °F 34.0 °F 34.7 °F 83% 30.21 in 10.0 mi ENE 8.1 mph - N/A   Overcast
4:15 AM 39.7 °F 32.7 °F 34.7 °F 82% 30.21 in 10.0 mi ENE 11.5 mph - N/A   Overcast
5:55 AM 39.7 °F 32.7 °F 34.7 °F 82% 30.19 in 10.0 mi ENE 11.5 mph 16.1 mph N/A   Overcast
6:55 AM 40.1 °F 34.1 °F 34.9 °F 82% 30.19 in 10.0 mi East 9.2 mph - N/A   Overcast
7:55 AM 39.6 °F 33.5 °F 35.8 °F 86% 30.18 in 10.0 mi ENE 9.2 mph - N/A Rain Light Rain
9:35 AM 41.0 °F 34.7 °F 37.8 °F 88% 30.16 in 10.0 mi East 10.4 mph - N/A   Overcast
9:55 AM 41.7 °F 37.3 °F 38.1 °F 87% 30.17 in 10.0 mi East 6.9 mph - N/A   Overcast
10:15 AM 42.8 °F 37.5 °F 38.8 °F 86% 30.16 in 7.0 mi East 9.2 mph - N/A   Overcast
10:35 AM 43.0 °F 37.7 °F 38.5 °F 84% 30.16 in 10.0 mi East 9.2 mph 16.1 mph N/A   Overcast
10:55 AM 43.3 °F 38.1 °F 38.7 °F 84% 30.16 in 10.0 mi ESE 9.2 mph - N/A   Overcast
11:15 AM 43.5 °F 39.4 °F 38.7 °F 83% 30.15 in 10.0 mi ESE 6.9 mph - N/A   Overcast
11:35 AM 43.7 °F 39.7 °F 39.0 °F 84% 30.16 in 10.0 mi ESE 6.9 mph - N/A   Overcast
11:55 AM 44.6 °F 40.7 °F 39.6 °F 82% 30.15 in 10.0 mi East 6.9 mph - N/A   Overcast
12:15 PM 45.7 °F 41.0 °F 40.3 °F 81% 30.13 in 10.0 mi East 9.2 mph - N/A   Mostly Cloudy
12:35 PM 46.8 °F - 40.3 °F 78% 30.11 in 10.0 mi East 6.9 mph - N/A   Mostly Cloudy
12:55 PM 47.5 °F - 40.3 °F 76% 30.11 in 10.0 mi East 6.9 mph - N/A   Scattered Clouds
1:15 PM 48.4 °F - 40.8 °F 75% 30.10 in 10.0 mi East 6.9 mph - N/A   Overcast
1:35 PM 48.6 °F - 41.4 °F 76% 30.08 in 10.0 mi ENE 8.1 mph - N/A   Overcast
1:55 PM 48.6 °F - 41.4 °F 76% 30.07 in 10.0 mi East 8.1 mph - N/A   Overcast
2:15 PM 49.3 °F - 41.9 °F 76% 30.06 in 10.0 mi East 6.9 mph - N/A   Overcast
2:35 PM 50.2 °F - 42.1 °F 74% 30.05 in 10.0 mi East 8.1 mph - N/A   Overcast
2:55 PM 50.5 °F - 42.3 °F 73% 30.04 in 10.0 mi East 9.2 mph - N/A   Overcast
3:15 PM 50.9 °F - 42.8 °F 74% 30.03 in 10.0 mi East 6.9 mph - N/A   Overcast
3:35 PM 50.4 °F - 43.7 °F 78% 30.02 in 7.0 mi East 6.9 mph - N/A Rain Rain
3:55 PM 50.0 °F - 45.0 °F 83% 30.02 in 7.0 mi East 4.6 mph - N/A Rain Light Rain
4:15 PM 50.0 °F - 45.5 °F 85% 30.02 in 7.0 mi Calm Calm - N/A   Light Drizzle
4:35 PM 50.0 °F - 45.7 °F 85% 30.02 in 7.0 mi NE 4.6 mph - N/A   Overcast
4:55 PM 50.2 °F - 45.9 °F 85% 30.02 in 7.0 mi ENE 3.5 mph - N/A   Overcast
5:15 PM 50.2 °F - 46.4 °F 87% 30.02 in 5.0 mi ENE 3.5 mph - N/A   Overcast
5:35 PM 49.6 °F - 46.9 °F 90% 30.02 in 1.8 mi Calm Calm - N/A   Overcast
5:55 PM 49.6 °F - 47.5 °F 92% 30.01 in 2.0 mi NE 4.6 mph - N/A   Overcast
6:15 PM 49.5 °F - 47.3 °F 92% 30.01 in 2.5 mi NNE 4.6 mph - N/A   Light Drizzle
6:35 PM 49.1 °F - 47.3 °F 93% 30.02 in 3.0 mi North 5.8 mph - N/A   Overcast
6:55 PM 48.9 °F - 46.9 °F 93% 30.01 in 3.0 mi NNE 4.6 mph - N/A   Overcast
7:15 PM 48.7 °F - 46.9 °F 93% 30.01 in 3.0 mi ENE 5.8 mph - N/A Rain Light Rain
7:35 PM 49.1 °F - 47.3 °F 93% 30.01 in 5.0 mi ENE 4.6 mph - N/A   Overcast
7:55 PM 49.5 °F - 47.3 °F 92% 30.01 in 5.0 mi ENE 3.5 mph - N/A   Overcast
8:15 PM 49.8 °F - 47.3 °F 91% 30.01 in 5.0 mi ENE 4.6 mph - N/A   Overcast
8:35 PM 50.0 °F - 47.5 °F 91% 30.00 in 5.0 mi ENE 4.6 mph - N/A   Overcast
8:55 PM 50.2 °F - 47.7 °F 91% 29.99 in 5.0 mi East 4.6 mph - N/A   Overcast
9:15 PM 50.2 °F - 47.7 °F 91% 29.99 in 5.0 mi Calm Calm - N/A   Overcast
9:35 PM 50.4 °F - 47.8 °F 91% 29.99 in 7.0 mi Calm Calm - N/A   Overcast
9:55 PM 50.5 °F - 47.8 °F 90% 29.99 in 7.0 mi Calm Calm - N/A   Overcast
10:15 PM 50.9 °F - 47.8 °F 89% 30.00 in 7.0 mi Calm Calm - N/A   Overcast
10:35 PM 51.6 °F - 48.0 °F 87% 30.00 in 7.0 mi Calm Calm - N/A   Overcast
10:55 PM 51.4 °F - 47.7 °F 87% 30.00 in 7.0 mi Calm Calm - N/A   Overcast
11:15 PM 51.6 °F - 47.7 °F 86% 29.99 in 7.0 mi ENE 3.5 mph - N/A   Overcast
11:35 PM 51.1 °F - 47.7 °F 88% 29.99 in 7.0 mi NNE 3.5 mph - N/A   Overcast
11:55 PM 50.9 °F - 48.0 °F 90% 29.99 in 7.0 mi NNE 3.5 mph - N/A   Overcast